Location: Kearney
(40.6990°N, 99.0810°W)
Time: 08:29:33
(UTC-05:00)

CSL-04 Debris - Pass Details

Date: 18 December 2017
Orbit: 827 x 849 km, 99.0° (Epoch: 18 July)

Event Time Altitude Azimuth Distance (km) Brightness Sun altitude
Rises 18:13:01 0° 171° (S) 3,351 7.5 -11.4°
Reaches altitude 10° 18:15:22 10° 173° (S) 2,422 6.8 -11.8°
Maximum altitude 18:20:42 70° 257° (WSW) 881 4.5 -12.8°
Drops below altitude 10° 18:26:06 10° 341° (NNW) 2,442 6.6 -13.7°
Sets 18:28:29 0° 344° (NNW) 3,382 7.3 -14.2°
